Probability
0 0 0 0 0 0 0 0 0 0 0 0 0 0 0 0 0 0 0 0 0 0 0 0 0 0 0 0 0 0 0 0 0 0 0 0 0 0 0 0 6 0 0
0 0 0 0 0 0 0 0 0 0 0 0 0 0 0 0 0 0 0 0 0 0 0 0 0 0 0 0 0 0 0 0 0 0 0 0 0 0 0 0 3 0 0
0 0 0 0 0 0 0 0 0 0 0 0 0 0 0 0 0 0 0 0 0 0 0 0 0 0 0 0 0 0 0 0 0 0 0 0 0 0 0 0 0 0 0
0 0 0 0 0 0 0 0 0 0 0 0 0 0 0 0 0 0 0 0 0 0 0 0 0 0 0 0 0 0 0 0 0 0 0 0 0 0 0 0 0 0 0
0 0 0 0 0 0 0 0 0 0 0 0 0 0 0 0 0 0 0 0 0 0 0 0 0 0 0 0 0 0 0 0 0 0 0 0 0 0 0 0 0 0 0
0 0 0 0 0 0 0 0 0 0 0 0 0 0 0 0 0 0 0 0 0 0 0 0 0 0 0 0 0 0 0 0 0 0 0 0 0 0 0 0 0 0 0
0 0 0 0 0 0 0 0 0 0 0 0 0 0 0 0 0 0 0 0 0 0 0 0 0 0 0 0 0 0 0 0 0 0 0 0 0 0 0 0 0 0 0
0 0 0 0 0 0 0 0 0 0 0 0 0 0 0 0 0 0 0 0 0 0 0 0 0 0 0 0 0 0 0 0 0 0 0 0 0 0 0 0 0 0 0
0 0 0 0 0 0 0 0 0 0 0 0 0 0 0 0 0 0 0 0 0 0 0 0 0 0 0 0 0 0 0 0 0 0 0 0 0 0 0 0 0 0 0
0 0 0 0 0 0 0 0 0 0 0 0 0 0 0 0 0 0 0 0 0 0 0 0 0 0 0 0 0 0 0 0 0 0 0 0 0 0 0 0 0 0 0
0 0 0 0 0 0 0 0 0 0 0 0 0 0 0 0 0 0 0 0 0 0 0 0 0 0 0 0 0 0 0 0 0 0 0 0 0 0 0 0 0 0 0
0 0 0 0 0 0 0 0 0 0 0 0 0 0 0 0 0 0 0 0 0 0 0 0 0 0 0 0 0 0 0 0 0 0 0 0 0 0 0 0 0 0 0
0 0 0 0 0 0 0 0 0 0 0 0 0 0 0 0 0 0 0 0 0 0 0 0 0 0 0 0 0 0 0 0 0 0 0 0 0 0 0 0 0 0 0
0 0 0 0 0 0 0 0 0 0 0 0 0 0 0 0 0 0 0 0 0 0 0 0 0 0 0 0 0 0 0 0 0 0 0 0 0 0 0 0 0 0 0
0 0 0 0 0 0 0 0 0 0 0 0 0 0 0 0 0 0 0 0 0 0 0 0 0 0 0 0 0 0 0 0 0 0 0 0 0 0 0 0 0 0 0
0 0 0 0 0 0 0 0 0 0 0 0 0 0 0 0 0 0 0 0 0 0 0 0 0 0 0 0 0 0 0 0 0 0 0 0 0 0 0 0 0 0 0
0 0 0 0 0 0 0 0 0 0 0 0 0 0 0 0 0 0 0 0 0 0 0 0 0 0 0 0 0 0 0 0 0 0 0 0 0 0 0 0 0 0 0
0 0 0 0 0 0 0 0 0 0 0 0 0 0 0 0 0 0 0 0 0 0 0 0 0 0 0 0 0 0 0 0 0 0 0 0 0 0 0 0 0 0 0
0 0 0 0 0 0 0 0 0 0 0 0 0 0 0 0 0 0 0 0 0 0 0 0 0 0 0 0 0 0 0 0 0 0 0 0 0 0 0 0 0 0 0
0 0 0 0 0 0 0 0 0 0 0 0 0 0 0 0 0 0 0 0 0 0 0 0 0 0 0 0 0 0 0 0 0 0 0 0 0 0 0 0 0 0 0
0 0 0 0 0 0 0 0 0 0 0 0 0 0 0 0 0 0 0 0 0 0 0 0 0 0 0 0 0 0 0 0 0 0 0 0 0 0 0 0 0 0 0
0 0 0 0 0 0 0 0 0 0 0 0 0 0 0 0 0 0 0 0 0 0 0 0 0 0 0 0 0 0 0 0 0 0 0 0 0 0 0 0 0 0 0
0 0 0 0 0 0 0 0 0 0 0 0 0 0 0 0 0 0 0 0 0 0 0 0 0 0 0 0 0 0 0 0 0 0 0 0 0 0 0 0 0 0 0
0 0 0 0 0 0 0 0 0 0 0 0 0 0 0 0 0 0 0 0 0 0 0 0 0 0 0 0 0 0 0 0 0 0 0 0 0 0 0 0 0 0 0
0 0 0 0 0 0 0 0 0 0 0 0 0 0 0 0 0 0 0 0 0 0 0 0 0 0 0 0 0 0 0 0 0 0 0 0 0 0 0 0 0 0 0
0 0 0 0 0 0 0 0 0 0 0 0 0 0 0 0 0 0 0 0 0 0 0 0 0 0 0 0 0 0 0 0 0 0 0 0 0 0 0 0 0 0 0
Height
5792 5794 5797 5799 5802 5804 5807 5810 5812 5814 5816 5818 5819 5821 5822 5824 5825 5826 5827 5828 5829 5829 5830 5830 5831 5831 5831 5831 5830 5830 5830 5829 5829 5828 5827 5826 5825 5824 5823 5822 5820 5819 5817
5783 5786 5789 5792 5794 5797 5799 5802 5805 5807 5809 5811 5813 5815 5816 5818 5819 5820 5822 5823 5824 5824 5825 5825 5826 5826 5826 5826 5826 5826 5826 5825 5825 5824 5823 5822 5821 5820 5819 5818 5817 5815 5814
5775 5778 5780 5783 5786 5789 5792 5794 5797 5800 5802 5804 5806 5808 5810 5812 5813 5814 5816 5817 5818 5819 5819 5820 5821 5821 5821 5821 5821 5821 5821 5821 5820 5820 5819 5818 5817 5816 5815 5814 5812 5811 5809
5766 5769 5772 5775 5778 5781 5784 5787 5789 5792 5794 5797 5799 5801 5803 5805 5806 5808 5809 5810 5811 5813 5813 5814 5815 5815 5816 5816 5816 5816 5816 5815 5815 5815 5814 5813 5813 5812 5811 5809 5808 5807 5805
5757 5760 5763 5766 5769 5772 5775 5778 5781 5784 5786 5789 5791 5794 5796 5798 5799 5801 5802 5803 5804 5806 5807 5807 5808 5809 5810 5810 5810 5810 5810 5810 5810 5809 5809 5808 5808 5807 5806 5804 5803 5802 5800
5748 5751 5754 5757 5760 5764 5767 5770 5772 5775 5778 5781 5783 5786 5788 5789 5791 5793 5794 5796 5797 5798 5800 5801 5801 5802 5803 5804 5804 5804 5804 5804 5804 5804 5803 5803 5802 5801 5800 5799 5798 5797 5795
5739 5742 5745 5748 5751 5754 5758 5761 5764 5766 5769 5772 5775 5777 5779 5781 5783 5784 5786 5787 5789 5790 5792 5793 5794 5795 5796 5797 5797 5798 5798 5798 5798 5798 5797 5797 5796 5796 5795 5793 5792 5791 5790
5730 5733 5736 5739 5742 5745 5748 5752 5754 5757 5760 5763 5765 5768 5770 5772 5774 5775 5777 5779 5780 5782 5783 5785 5786 5787 5788 5789 5790 5790 5791 5791 5791 5791 5791 5790 5790 5789 5788 5787 5786 5785 5784
5720 5724 5727 5730 5733 5736 5739 5742 5745 5747 5750 5753 5755 5758 5760 5763 5765 5767 5768 5770 5771 5773 5774 5775 5777 5778 5779 5780 5781 5782 5783 5783 5784 5784 5784 5783 5783 5782 5781 5781 5780 5778 5777
5710 5713 5716 5720 5723 5726 5729 5732 5735 5738 5740 5743 5745 5747 5750 5752 5755 5757 5759 5760 5762 5763 5764 5766 5767 5769 5770 5771 5772 5773 5774 5775 5776 5776 5776 5776 5775 5775 5774 5773 5772 5771 5770
5699 5702 5706 5709 5712 5715 5718 5721 5724 5727 5729 5732 5735 5737 5739 5741 5744 5746 5749 5751 5753 5754 5755 5756 5758 5759 5760 5761 5762 5764 5765 5766 5766 5767 5767 5767 5767 5767 5766 5766 5765 5764 5763
5689 5692 5696 5699 5702 5705 5708 5710 5713 5716 5718 5721 5724 5726 5729 5731 5734 5736 5738 5740 5742 5744 5745 5746 5748 5749 5750 5751 5752 5754 5755 5756 5757 5757 5758 5758 5758 5758 5758 5758 5757 5756 5755
5678 5681 5684 5688 5691 5694 5697 5699 5702 5705 5707 5710 5713 5715 5718 5721 5723 5725 5727 5730 5732 5734 5735 5737 5737 5738 5739 5740 5742 5743 5744 5745 5746 5747 5748 5748 5749 5749 5749 5748 5748 5747 5746
5667 5670 5673 5676 5680 5682 5685 5688 5691 5694 5696 5699 5701 5704 5707 5709 5711 5714 5716 5718 5721 5723 5725 5726 5727 5728 5729 5730 5731 5732 5733 5734 5735 5736 5737 5738 5738 5739 5739 5739 5738 5738 5737
5655 5659 5662 5665 5668 5671 5674 5676 5679 5682 5685 5687 5690 5692 5695 5697 5699 5702 5704 5706 5709 5711 5714 5716 5716 5717 5717 5718 5720 5720 5722 5722 5724 5725 5726 5727 5728 5728 5728 5728 5728 5727 5727
5644 5647 5650 5653 5656 5659 5662 5664 5667 5670 5673 5675 5678 5681 5683 5685 5687 5689 5692 5694 5696 5698 5701 5704 5705 5705 5706 5707 5708 5709 5710 5711 5712 5713 5715 5716 5717 5717 5717 5717 5717 5717 5716
5632 5635 5638 5641 5644 5647 5650 5653 5656 5658 5661 5663 5666 5669 5671 5673 5675 5677 5679 5682 5684 5685 5688 5690 5692 5693 5694 5695 5696 5697 5698 5699 5700 5702 5703 5704 5705 5705 5705 5706 5705 5705 5705
5620 5623 5627 5630 5633 5635 5638 5641 5644 5647 5649 5652 5654 5656 5659 5661 5663 5665 5667 5669 5671 5673 5675 5677 5679 5680 5682 5683 5684 5685 5686 5687 5688 5689 5691 5692 5692 5693 5693 5693 5693 5693 5693
5608 5611 5615 5618 5621 5624 5626 5629 5632 5635 5637 5640 5642 5644 5647 5649 5651 5653 5655 5657 5659 5660 5662 5664 5666 5667 5669 5670 5671 5672 5673 5674 5675 5677 5678 5679 5680 5681 5681 5681 5681 5681 5681
5597 5600 5604 5607 5609 5612 5614 5617 5619 5622 5624 5627 5629 5632 5634 5636 5638 5640 5642 5644 5646 5648 5649 5651 5653 5654 5656 5657 5658 5659 5660 5662 5663 5664 5665 5666 5667 5668 5668 5669 5669 5669 5668
5585 5588 5592 5595 5597 5600 5602 5604 5607 5609 5612 5614 5617 5619 5621 5623 5625 5627 5629 5631 5633 5634 5636 5637 5639 5641 5643 5644 5645 5646 5647 5648 5650 5651 5652 5653 5655 5655 5655 5655 5655 5656 5655
5574 5577 5580 5583 5585 5587 5590 5592 5594 5596 5599 5601 5604 5606 5608 5610 5612 5614 5615 5617 5619 5621 5623 5624 5626 5627 5629 5630 5631 5632 5633 5635 5637 5639 5638 5639 5640 5641 5642 5642 5642 5642 5642
5563 5566 5569 5572 5574 5576 5578 5580 5582 5584 5586 5588 5591 5593 5595 5597 5598 5600 5602 5603 5605 5607 5609 5610 5612 5613 5615 5617 5618 5618 5619 5620 5622 5623 5623 5625 5626 5627 5628 5628 5628 5628 5628
5552 5555 5558 5560 5562 5564 5566 5568 5570 5572 5574 5575 5577 5579 5581 5583 5585 5586 5588 5590 5591 5593 5594 5596 5598 5600 5600 5601 5602 5603 5604 5606 5607 5608 5609 5611 5612 5613 5613 5613 5614 5613 5613
5541 5544 5546 5548 5551 5553 5554 5556 5558 5560 5561 5563 5565 5566 5568 5570 5572 5573 5575 5576 5578 5579 5580 5581 5583 5584 5585 5586 5587 5588 5590 5591 5593 5594 5594 5596 5597 5598 5599 5599 5599 5598 5598
5529 5532 5534 5537 5540 5542 5543 5544 5546 5548 5550 5551 5553 5554 5555 5557 5558 5558 5560 5562 5564 5565 5566 5567 5568 5569 5571 5572 5573 5574 5576 5577 5578 5580 5581 5581 5582 5583 5584 5585 5584 5584 5584
Wind_Speed
35 34 34 34 34 34 34 33 31 30 30 28 27 26 26 26 25 25 24 23 22 22 21 20 19 18 18 18 18 17 17 17 17 17 17 17 17 16 16 16 16 16 17
37 36 35 36 35 35 34 34 33 32 31 30 28 27 27 27 27 26 25 25 24 23 23 22 21 20 19 19 19 18 18 19 19 18 18 18 18 18 17 17 17 17 18
38 38 36 37 37 36 35 35 34 33 32 31 31 30 28 28 28 28 27 27 26 25 25 24 24 22 21 21 21 21 20 20 21 20 20 19 19 19 18 19 19 19 19
38 38 38 37 38 38 37 36 36 34 33 33 32 31 30 29 29 28 28 28 28 28 27 26 26 24 23 23 23 22 22 22 21 21 21 20 20 20 20 20 20 20 20
39 39 39 38 38 38 38 38 37 36 35 34 33 32 32 31 31 30 30 29 29 29 29 28 27 26 25 25 24 23 23 23 23 22 22 22 21 21 21 21 21 22 22
40 40 40 39 38 39 39 38 38 37 37 36 35 34 34 33 33 32 31 30 29 29 29 29 28 28 27 26 25 25 24 24 24 24 23 23 23 23 23 23 23 23 23
40 40 40 40 40 40 40 40 40 39 39 38 37 36 36 35 34 34 33 32 32 31 30 30 29 29 29 28 27 27 26 26 26 25 25 24 25 25 24 24 24 24 24
41 40 41 41 41 40 40 40 40 41 40 40 39 38 37 36 36 35 34 34 33 33 32 32 32 30 30 30 29 29 28 28 28 27 26 26 26 26 26 26 26 26 25
42 41 41 41 42 41 40 41 40 40 40 41 41 39 39 38 37 37 37 36 36 35 35 34 34 33 32 32 31 31 31 30 30 29 29 28 27 27 27 27 27 27 27
42 42 41 41 41 40 41 42 42 41 41 41 41 41 40 39 39 38 37 37 36 36 36 35 35 35 35 34 34 33 33 32 32 31 31 30 30 29 29 28 28 28 28
43 44 43 43 43 43 42 42 43 42 42 42 41 41 40 39 40 39 38 37 37 37 37 37 37 36 37 36 35 35 35 35 34 34 33 32 32 31 30 30 30 30 30
43 43 44 44 44 45 44 43 44 44 43 42 42 42 41 41 41 40 39 39 38 38 38 38 38 37 37 37 37 37 37 36 36 36 35 35 34 34 34 32 31 31 31
46 45 45 45 46 46 45 45 45 45 45 44 43 42 42 42 42 42 42 41 41 39 39 39 39 39 39 38 39 39 38 38 38 37 37 37 36 36 35 35 34 33 32
47 47 45 46 47 47 47 46 46 46 45 45 45 44 44 45 44 44 44 43 43 42 42 41 41 41 41 41 41 40 40 39 39 38 38 38 38 38 37 37 37 36 35
46 46 46 47 48 47 46 46 46 46 45 46 45 45 45 46 47 46 46 45 44 44 44 43 43 43 42 42 42 42 42 41 40 40 40 40 39 38 38 38 38 38 38
45 45 45 46 47 48 47 47 47 47 46 46 47 47 47 47 47 48 47 46 46 45 45 45 44 44 43 43 43 43 43 43 42 42 41 41 40 40 40 40 40 39 39
46 47 47 47 46 46 47 46 46 45 46 45 45 46 47 48 48 48 47 47 46 46 46 45 45 44 43 44 44 44 44 44 44 43 43 42 42 41 41 41 41 40 40
45 46 47 48 48 47 46 46 46 46 46 45 45 45 45 46 46 46 47 47 47 47 47 46 46 45 45 45 45 46 46 45 45 45 44 43 43 42 42 43 43 43 42
44 45 45 45 46 47 47 46 47 48 48 47 47 47 46 46 46 47 47 47 47 47 48 48 47 46 46 46 46 46 46 47 47 47 45 44 44 43 43 44 44 44 44
45 45 45 45 45 46 47 47 48 48 48 48 48 48 48 48 47 47 47 47 48 48 49 48 48 48 48 47 47 47 47 48 48 48 47 46 46 45 44 45 45 46 46
44 44 45 45 45 45 46 46 47 48 48 48 48 48 48 49 48 48 48 48 48 48 48 48 48 48 49 49 49 49 48 48 49 48 48 48 47 47 47 47 46 46 46
42 42 44 43 43 43 45 47 47 47 47 47 47 48 48 49 49 49 49 49 49 49 48 49 49 49 49 49 50 49 49 50 50 51 51 50 49 49 49 49 48 48 48
42 42 42 43 43 43 43 45 46 46 46 46 47 48 48 48 48 49 50 50 50 50 50 50 50 49 50 50 50 50 50 51 51 51 52 52 52 51 50 50 50 50 50
43 43 42 43 43 43 43 43 43 44 45 45 45 45 47 47 47 48 49 50 50 50 51 51 51 51 51 51 51 50 50 50 50 51 53 52 51 51 51 51 52 51 51
44 43 42 43 43 43 42 42 42 42 43 43 44 45 46 47 47 48 48 49 49 49 50 50 50 50 50 50 50 50 50 49 49 49 50 51 51 51 51 51 51 51 52
42 42 42 42 42 42 41 41 41 41 42 42 43 43 43 45 45 46 47 47 48 48 49 49 49 49 50 50 50 50 49 49 48 48 49 50 50 51 51 51 51 51 51
Wind_Direction
242 243 243 243 242 243 242 242 242 244 244 244 244 246 248 251 251 252 254 255 256 257 258 259 261 264 265 267 270 273 275 277 280 283 285 288 291 293 293 294 296 297 298
242 243 243 242 242 242 242 243 242 242 243 244 245 247 249 251 252 253 253 255 256 257 257 258 260 262 265 266 268 272 274 275 278 280 282 285 287 289 290 291 292 294 295
243 243 244 244 242 242 242 243 243 243 244 245 245 248 249 250 252 252 253 254 255 255 256 257 259 260 263 266 267 270 273 275 277 277 279 282 284 286 287 289 290 290 293
244 244 243 244 243 243 243 244 244 243 244 245 246 248 250 251 251 253 254 255 255 254 255 256 258 259 262 265 268 269 271 274 274 276 277 278 280 282 284 286 288 288 290
243 243 244 243 243 243 244 245 244 243 243 245 247 249 250 251 252 253 254 254 253 254 254 255 257 259 261 264 267 268 269 271 272 273 275 277 278 280 282 283 285 286 288
242 243 244 244 244 244 244 244 244 244 246 246 248 249 250 252 253 254 254 253 253 254 256 256 257 259 261 263 265 267 268 268 270 272 273 274 276 279 282 282 283 285 287
244 243 243 244 245 246 245 245 245 247 248 248 248 249 250 251 251 253 254 255 255 255 256 257 257 259 260 262 263 266 268 269 269 271 272 274 276 278 280 282 282 283 286
244 243 245 246 246 247 247 247 247 247 248 248 249 250 250 251 252 253 254 254 254 255 256 257 258 259 261 262 264 265 266 268 269 269 272 274 276 278 279 280 281 282 284
243 243 244 245 246 247 248 249 249 249 248 249 250 251 251 252 253 252 252 254 255 256 256 257 258 260 262 263 263 264 266 266 267 268 270 273 275 276 278 279 280 281 282
243 242 244 245 244 245 247 248 249 250 250 249 250 251 251 253 254 255 254 255 255 256 255 256 258 260 261 263 263 263 264 265 266 267 268 270 273 274 276 278 279 280 282
245 243 244 245 245 246 247 248 249 249 249 249 249 249 249 251 253 255 254 255 255 256 256 256 258 260 262 261 262 263 263 264 266 267 267 268 270 272 274 276 278 279 281
246 245 245 245 245 246 248 249 248 249 249 249 249 249 249 251 252 254 254 255 256 256 256 257 258 261 261 261 261 262 263 264 265 266 267 268 270 272 272 273 275 278 280
246 246 246 246 246 247 248 249 248 248 249 250 250 250 250 251 252 253 254 254 255 256 256 256 258 261 262 261 261 262 263 264 264 265 266 268 270 271 271 272 274 276 279
246 247 247 247 247 247 248 248 248 247 249 250 251 251 251 251 251 253 254 254 254 254 256 257 259 261 262 262 262 262 262 263 263 264 265 267 269 270 271 272 273 274 276
246 248 247 247 247 247 248 248 248 247 248 249 251 251 252 252 252 253 253 254 254 255 255 257 259 259 260 261 262 262 262 263 263 264 265 267 268 269 271 271 271 273 275
246 247 248 248 248 246 246 247 247 248 248 249 250 251 251 252 253 254 254 254 255 256 257 257 258 259 259 259 260 263 264 263 263 264 265 266 267 269 270 271 270 271 274
246 248 249 249 249 248 247 248 248 248 248 249 251 251 251 252 253 254 254 254 255 257 258 258 258 257 258 258 259 261 263 264 264 265 266 266 267 267 269 270 270 271 273
248 249 250 250 249 249 249 250 249 248 249 249 250 251 252 253 253 253 255 255 256 257 259 259 258 257 258 258 260 261 262 263 264 263 264 265 266 267 268 269 270 271 273
247 248 249 250 251 251 250 250 250 250 250 250 250 252 253 254 254 254 255 256 257 258 259 259 258 258 259 259 260 261 261 262 263 263 263 264 266 268 268 269 270 272 273
247 246 248 250 251 252 251 251 250 251 251 251 251 252 254 254 255 255 255 255 256 257 258 259 259 259 259 260 261 262 262 262 262 263 263 264 265 267 268 269 270 272 273
247 247 247 249 251 252 251 252 252 251 252 253 253 254 254 254 254 255 254 255 256 257 257 258 259 260 260 260 261 262 263 263 263 264 264 264 266 266 268 269 270 271 272
247 248 248 249 251 252 252 253 252 253 252 253 253 253 254 254 255 255 255 255 255 256 256 258 259 259 260 261 261 262 264 264 265 265 265 265 265 266 267 268 270 271 272
250 251 251 251 252 253 254 253 253 253 253 253 254 253 253 254 254 256 256 256 256 256 257 258 259 258 259 260 261 262 263 264 264 265 265 265 265 266 267 269 270 270 271
252 253 253 254 254 254 255 255 253 253 254 254 254 254 254 254 254 256 256 257 257 257 257 259 259 258 259 259 261 262 262 263 264 265 264 265 265 266 267 268 269 270 270
252 253 253 254 255 256 257 257 256 255 256 257 257 257 257 256 256 256 257 258 257 257 258 260 261 260 260 260 260 261 263 264 264 264 265 265 265 265 266 268 269 270 271
251 253 253 253 254 255 256 257 258 258 257 257 258 259 259 257 256 257 257 258 258 259 260 261 262 262 262 261 261 262 263 264 264 264 264 266 266 266 267 268 269 270 271